Location: Unspecified
(51.0950°N, 12.9690°E)
Time: 22:54:25
(UTC+00:00)

YAOGAN 1 - Pass Details

Date: 28 October 2021
Orbit: 618 x 620 km, 97.9° (Epoch: 01 December)

Event Time Altitude Azimuth Distance (km) Brightness Sun altitude
Rises 18:15:26 0° 181° (S) 2,886 5.9 -23.4°
Reaches altitude 10° 18:17:41 10° 187° (S) 1,985 5.1 -23.8°
Maximum altitude 18:21:51 45° 261° (W) 848 3.6 -24.4°
Drops below altitude 10° 18:26:02 10° 335° (NNW) 2,000 5.6 -25.1°
Sets 18:28:19 0° 342° (NNW) 2,911 6.4 -25.4°
